SCP
0 0 0 0 0 0 0 0 0 0 0 0 0 0 0 0 0 0 0 0 0 0 0 0 0 0 0 0 0 0 0 0 0 0 0 0 0 0 0 0 0 0 0 0 0 0 0 0 0 0 0 0 0 -0
0 0 0 0 0 0 0 0 0 0 0 0 0 0 0 0 0 0 0 0 0 0 0 0 0 0 0 0 0 0 0 0 0 0 0 0 0 0 0 0 0 0 0 0 0 0 -0 0 0 0 0 0 -0 -0
0 0 0 0 0 0 0 0 0 0 0 0 0 0 0 0 0 0 0 0 0 0 0 0 0 0 0 0 0 0 0 0 0 0 0 0 0 0 0 0 0 0 0 0 0 0 0 -0 0 0 0 -0 -0 -0
0 0 0 0 0 0 0 0 0 0 0 0 0 0 0 0 0 0 0 0 0 0 0 0 0 0 0 0 0 0 0 0 0 0 0 0 0 0 0 0 0 0 0 0 0 0 -0 0 0 0 -0 -0 -0 -0
0 0 0 0 0 0 0 0 0 0 0 0 0 0 0 0 0 0 0 0 0 0 0 0 0 0 0 0 0 0 0 0 0 0 0 0 0 0 0 0 0 0 0 0 0 0 0 0 -0 -0 -0 -0 -0 -0
0 0 0 0 0 0 0 0 0 0 0 0 0 0 0 0 0 0 0 0 0 0 0 0 0 0 0 0 0 0 0 0 0 0 0 0 0 0 0 0 0 0 0 0 0 0 0 0 -0 -0 -0 -0 -0 0
0 0 0 0 0 0 0 0 0 0 0 0 0 0 0 0 0 0 0 0 0 0 0 0 0 0 0 0 0 0 0 0 0 0 0 0 0 0 0 0 0 -0 -0 -0 0 -0 -0 0 -0 -0 -0 -0 0 0
0 0 0 0 0 0 0 0 0 0 0 0 0 0 0 0 0 0 0 0 0 0 0 0 0 0 0 0 0 0 0 0 0 0 0 0 0 0 0 0 -0 -0 -0 0 0 0 -0 -0 -0 0 0 0 0 0
0 0 0 0 0 0 0 0 0 0 0 0 0 0 0 0 0 0 0 0 0 0 0 0 0 0 0 0 0 0 0 0 0 0 0 0 0 0 0 0 -0 -0 0 0 0 -0 0 0 0 0 0 0 0 0
0 0 0 0 0 0 0 0 0 0 0 0 0 0 0 0 0 0 0 0 0 0 0 0 0 0 0 0 0 0 0 0 0 0 0 0 0 0 0 0 0 -0 0 -0 0 -0 -0 -0 -0 -0 -0 0 -0 0
0 0 0 1 1 0 0 0 0 0 0 0 0 0 0 0 0 0 0 0 0 0 0 0 0 0 0 0 0 0 0 0 0 0 0 0 0 0 0 0 0 0 0 -0 0 -0 0 0 -0 -0 0 -0 0 0
1 1 0 0 0 0 0 0 0 0 0 0 0 0 0 0 0 0 0 0 0 0 0 0 0 0 0 0 0 0 0 0 0 0 0 0 0 0 0 0 0 0 0 0 -0 -0 -0 -0 -0 0 0 -0 0 0
0 0 0 0 0 0 0 0 0 0 0 0 0 0 0 0 0 0 0 0 0 0 0 0 0 0 0 0 0 0 0 0 0 0 0 0 0 0 0 0 0 0 0 0 0 -0 0 -0 -0 -0 -0 0 0 0
0 0 0 0 0 0 0 0 0 0 0 0 0 0 0 0 0 0 0 0 0 0 0 0 0 0 0 0 0 0 0 0 0 0 0 0 0 0 0 0 0 -0 -0 -0 -0 -0 0 0 -0 -0 -0 -0 0 0
0 0 0 0 0 0 0 0 0 0 0 0 0 0 0 0 0 0 0 0 0 0 0 0 0 0 0 0 0 0 0 0 0 0 0 0 0 0 0 -0 -0 -0 0 -0 -0 -0 0 0 -0 -0 -0 -0 0 0
0 0 0 0 0 0 0 0 0 0 0 0 0 0 0 0 0 0 0 0 0 0 0 0 0 0 0 0 0 0 0 0 0 0 0 0 0 0 0 -0 0 -0 0 -0 -0 -0 0 0 -0 -0 -0 -0 0 0
0 0 0 0 0 0 0 0 0 0 0 0 0 0 0 0 0 0 0 0 0 0 0 0 0 0 0 0 0 0 0 0 0 0 0 0 0 0 0 -0 0 -0 0 -0 -0 -0 0 0 0 0 -0 -0 -0 0
0 0 -0 0 0 0 0 0 0 0 0 0 0 0 0 0 0 0 0 0 0 0 0 0 0 0 0 0 0 0 0 0 0 0 0 0 0 0 0 0 -0 -0 0 0 -0 -0 0 0 0 0 0 0 -0 0
0 0 0 0 0 0 0 0 0 0 0 0 0 0 0 0 0 0 0 0 0 0 0 0 0 0 0 0 0 0 0 0 0 0 0 0 0 0 0 0 0 0 -0 -0 -0 -0 0 0 -0 -0 -0 -0 -0 -0
0 0 0 0 0 0 0 0 0 0 0 0 0 0 0 0 0 0 0 0 0 0 0 0 0 0 0 0 0 0 0 0 0 0 0 0 0 0 0 0 0 0 0 0 -0 -0 -0 -0 -0 -0 -0 -0 -0 -0
0 0 0 0 0 0 0 0 0 0 0 0 0 0 0 0 0 0 0 0 0 0 0 0 0 0 0 0 0 0 0 0 0 0 0 0 0 0 0 0 0 0 0 0 0 0 -0 -0 -0 -0 -0 -0 -0 0
0 0 0 0 0 0 0 0 0 0 0 0 0 0 0 0 0 0 0 0 0 0 0 0 0 0 0 0 0 0 0 0 0 0 0 0 0 0 0 0 0 0 0 0 0 0 0 0 0 -0 -0 -0 0 0
0 0 0 0 0 0 0 0 0 0 0 0 0 0 0 0 0 0 0 0 0 0 0 0 0 0 0 0 0 0 0 0 0 0 0 0 0 0 0 0 0 0 0 0 0 0 0 0 0 0 -0 0 0 0
0 0 0 0 0 0 0 0 0 0 0 0 -0 -0 0 0 0 0 0 0 0 0 0 0 0 0 0 0 0 0 0 0 0 0 0 0 0 0 0 0 0 0 0 0 0 0 0 0 0 0 0 0 0 0
0 0 0 0 0 0 0 0 0 0 -0 -0 -0 -0 -0 0 0 0 0 0 0 0 0 0 0 0 0 0 0 0 0 0 0 0 0 0 0 0 0 0 0 0 0 0 0 0 0 0 0 0 0 0 0 0
0 0 0 0 0 0 0 0 -0 -0 -0 -0 -0 -0 -0 -0 -0 -0 0 0 0 0 0 0 0 0 0 0 0 0 0 0 0 0 0 0 0 0 0 0 0 0 0 0 0 0 0 0 0 0 0 0 0 0
0 0 0 0 0 0 0 0 0 0 -0 -0 -0 0 0 0 -0 0 0 0 0 0 0 0 0 0 0 0 0 0 0 0 0 0 0 0 0 0 0 0 0 0 0 0 0 0 0 0 0 0 0 0 0 0
0 0 0 0 0 0 0 0 0 0 0 0 0 0 0 0 0 0 0 0 0 0 0 0 0 0 0 0 0 0 0 0 0 0 0 0 0 0 0 0 0 0 0 0 0 0 0 0 0 0 0 0 0 0
0 0 0 0 0 0 0 0 0 0 0 0 0 0 0 0 0 0 0 0 0 0 0 0 0 0 0 0 0 0 0 0 0 0 0 0 0 0 0 0 0 0 0 0 0 0 0 0 0 0 0 0 0 0
0 0 0 0 0 0 0 0 0 0 0 0 0 0 0 0 0 0 0 0 0 0 0 0 0 0 0 0 0 0 0 0 0 0 0 0 0 0 0 0 0 0 0 0 0 0 0 0 0 0 0 0 0 0
0 0 0 0 0 0 0 0 0 0 0 0 0 0 0 0 0 0 0 0 0 0 0 0 0 0 0 0 0 0 0 0 0 0 0 0 0 0 0 0 0 0 0 0 0 0 0 0 0 0 0 0 0 0
0 0 0 0 0 0 0 0 0 0 0 0 0 0 0 0 0 0 0 0 0 0 0 0 0 0 0 0 0 0 0 0 0 0 0 0 0 0 0 0 0 0 0 0 0 0 0 0 0 0 0 0 0 0
0 0 0 0 0 0 0 0 0 0 0 0 0 0 0 0 0 0 0 0 0 0 0 0 0 0 0 0 0 0 0 0 0 0 0 0 0 0 0 0 0 0 0 0 0 0 0 0 0 0 0 0 0 0
Wind_Speed_500mb
92 88 85 80 75 69 69 69 68 67 66 64 54 48 42 31 24 22 22 25 20 19 16 10 12 12 10 11 6 12 8 3 4 3 2 5 4 2 7 10 7 7 8 12 13 20 12 64 54 34 51 68 63 67
94 92 89 84 79 75 76 77 74 80 78 73 62 45 40 34 32 30 28 29 22 20 17 22 25 20 19 14 17 6 3 6 5 5 1 2 7 6 7 7 8 5 5 12 11 18 64 56 60 69 67 61 65 65
99 93 92 86 81 79 81 79 83 85 84 80 64 48 43 39 35 33 33 36 36 37 34 11 13 18 19 17 18 8 5 5 6 7 4 2 6 3 5 7 14 10 14 12 22 12 59 68 54 55 55 63 65 62
101 96 94 89 84 83 83 95 86 89 84 71 61 48 42 39 40 35 37 40 26 26 15 9 12 18 19 15 14 16 19 13 12 9 4 4 5 4 5 11 17 17 16 18 29 37 74 54 71 69 68 58 55 52
100 96 93 92 87 89 94 106 101 93 77 64 60 53 48 35 34 37 38 39 36 10 13 19 18 18 17 14 11 9 9 9 6 4 6 5 4 4 8 8 12 2 18 16 24 56 47 70 71 68 59 61 56 53
101 95 93 93 92 96 106 98 93 86 80 71 60 53 46 48 42 42 17 22 18 42 19 9 14 9 13 9 9 9 7 6 4 2 4 3 5 6 4 8 3 10 27 40 50 57 57 67 61 53 59 59 52 48
100 95 95 95 102 104 115 98 92 84 73 70 68 60 51 58 57 22 22 45 37 21 14 14 12 8 10 10 8 8 6 5 3 2 5 6 1 4 6 11 17 35 40 49 46 51 60 53 62 58 53 50 43 38
101 92 100 111 121 126 112 102 90 83 84 73 65 64 52 36 29 40 56 44 31 17 14 11 7 11 10 6 6 6 3 4 6 2 3 2 5 7 6 13 32 40 44 43 49 49 50 52 48 47 47 43 42 38
100 102 125 127 137 126 108 93 96 87 78 76 70 53 46 46 22 42 42 31 18 13 13 7 12 8 10 6 7 5 3 3 3 4 3 3 4 7 8 24 32 41 41 47 51 50 49 49 46 46 48 43 36 36
129 145 154 154 123 110 108 104 100 93 86 77 76 34 15 30 59 43 12 7 8 11 9 9 5 9 8 7 6 5 3 2 5 6 3 5 7 5 17 25 32 40 41 42 47 50 55 55 53 50 43 31 29 34
160 154 136 131 124 117 110 109 102 96 93 60 27 12 59 45 14 9 9 9 7 8 7 9 12 17 7 5 6 3 4 2 4 6 3 4 4 6 22 28 33 36 40 42 38 38 39 39 41 36 29 27 31 33
133 122 118 116 116 114 107 103 102 79 50 36 36 63 32 10 9 11 4 3 2 8 9 18 16 12 7 7 5 4 4 4 2 3 4 5 5 17 24 31 36 41 42 42 32 30 34 31 27 24 25 27 29 32
115 115 113 113 109 102 98 90 75 58 57 68 21 11 7 4 6 9 11 4 9 15 15 22 18 10 9 7 8 6 6 4 1 6 6 2 12 18 24 27 34 34 40 35 26 23 26 23 22 23 24 26 27 31
108 104 99 99 96 92 86 73 74 70 34 13 9 8 1 6 5 4 9 17 15 30 33 25 16 7 7 6 4 6 6 3 6 6 6 7 12 20 23 21 28 34 34 37 20 21 25 23 22 22 23 26 29 32
95 93 88 84 85 85 72 77 57 38 15 10 8 7 5 11 15 19 28 32 33 32 26 21 13 7 7 5 0 2 6 7 8 5 5 7 10 18 22 20 24 31 34 36 23 14 25 23 21 21 25 27 29 30
88 87 83 85 78 73 74 52 38 23 10 8 10 11 21 29 21 25 33 36 25 25 19 11 8 5 5 4 6 8 4 7 5 5 5 2 9 16 20 21 24 30 27 30 29 25 24 22 22 24 23 29 31 32
79 73 77 73 73 66 53 43 25 12 10 8 11 27 14 36 29 25 29 26 35 17 6 6 6 4 11 6 5 6 7 7 7 4 5 9 12 14 19 23 24 27 25 22 28 23 22 23 23 24 26 28 29 29
79 73 71 69 66 56 46 22 11 11 12 13 15 18 18 23 30 24 23 34 18 10 11 4 11 6 7 7 7 13 14 9 10 14 19 18 18 15 20 26 26 26 24 24 23 23 22 25 26 26 26 26 25 27
76 67 63 62 54 37 11 10 10 12 10 13 20 21 20 27 24 23 26 29 17 16 12 7 4 7 8 15 14 5 9 12 14 15 18 23 23 24 25 27 28 24 23 24 24 21 21 22 24 24 23 23 22 27
71 67 66 55 37 13 10 10 10 13 8 8 18 19 15 15 20 18 21 25 19 12 6 8 14 19 19 17 14 15 16 18 22 27 29 27 26 27 26 23 23 22 24 21 22 19 16 15 18 17 17 20 19 23
78 70 58 33 27 18 14 9 12 12 14 12 17 13 11 14 12 12 11 19 10 9 13 27 31 28 25 27 27 26 28 26 28 31 33 32 26 26 25 21 21 22 22 21 19 16 14 14 13 11 11 12 14 18
80 68 44 28 13 11 13 12 17 17 9 14 14 10 11 10 9 9 12 13 12 23 22 25 26 26 25 27 27 26 27 26 28 29 32 33 31 26 23 18 18 20 20 20 19 16 14 11 9 6 6 8 12 18
66 49 28 10 9 9 9 13 9 7 9 11 9 8 6 7 8 14 7 12 15 23 24 23 24 24 28 28 28 31 32 31 31 28 27 26 25 23 24 24 22 23 21 18 17 15 12 8 6 4 4 7 10 13
55 17 8 7 9 9 9 7 8 10 10 6 6 5 6 6 9 5 7 11 18 14 16 14 15 16 16 20 22 20 18 22 24 24 25 26 25 22 22 22 21 22 20 19 16 12 10 8 5 2 2 6 10 13
13 5 8 10 9 11 9 8 7 7 6 6 5 3 7 9 7 7 7 10 16 17 15 13 9 8 9 10 12 12 15 18 19 18 16 20 19 19 22 22 23 22 19 16 13 10 10 9 7 5 4 6 8 13
8 4 4 9 13 8 12 9 8 9 10 7 8 10 9 8 5 9 8 12 20 22 22 15 8 6 7 8 9 9 12 13 16 19 17 19 20 19 16 20 21 21 19 17 15 13 12 10 9 8 8 8 8 11
8 5 6 12 14 19 14 12 17 9 9 10 13 14 8 6 9 9 11 17 23 30 26 19 12 9 10 10 10 11 11 11 13 14 17 20 23 26 26 21 18 20 16 18 17 15 14 13 11 10 10 9 9 11
8 14 15 24 13 9 12 13 12 12 11 15 23 9 11 10 7 8 9 9 14 27 30 30 23 17 19 18 16 15 15 14 14 15 18 18 18 22 24 22 20 20 19 19 20 18 17 15 13 11 10 10 12 12
8 22 26 13 10 7 10 11 16 14 23 27 20 12 12 16 17 13 13 17 19 22 29 35 33 31 31 29 29 28 24 20 17 18 19 21 24 24 24 23 22 22 21 22 22 20 18 16 14 13 12 13 13 14
14 22 11 11 12 8 11 16 16 19 32 25 19 15 21 31 34 34 38 38 40 43 46 47 46 47 45 42 41 38 35 32 27 23 22 23 24 26 24 25 25 24 23 23 22 21 19 18 15 14 14 15 15 14
35 14 10 9 9 10 14 25 18 21 22 22 28 31 27 24 47 51 48 44 43 43 47 53 56 57 57 56 52 49 46 40 35 30 25 25 26 26 26 27 29 28 26 25 23 22 20 19 18 18 18 19 20 17
25 15 13 8 8 16 19 19 16 14 13 16 19 27 30 20 17 26 26 18 18 24 27 30 34 36 34 37 44 49 47 45 40 36 33 30 28 27 27 28 29 28 27 25 24 23 22 22 21 20 21 19 17 15
13 22 14 12 11 14 15 14 11 6 9 9 14 27 27 17 16 20 28 21 19 19 21 24 28 28 27 28 33 40 44 47 47 46 42 39 35 37 36 34 32 30 29 28 27 26 25 25 25 24 24 24 20 21
Wind_Direction_500mb
227 227 228 230 233 236 243 246 249 255 251 252 259 265 260 248 240 225 207 193 179 109 100 96 103 117 115 139 164 133 144 148 57 79 332 58 301 85 278 294 312 307 322 288 311 293 290 351 332 331 310 314 313 313
227 229 230 232 235 237 241 249 251 251 250 246 244 236 236 221 212 206 195 185 173 120 123 116 105 113 101 78 119 112 78 89 84 78 310 87 232 219 354 312 136 285 250 295 289 298 307 310 321 317 316 316 314 314
226 228 230 232 235 240 244 249 250 250 248 243 236 209 209 200 195 200 184 159 144 102 104 102 71 113 117 113 114 123 119 101 100 82 88 44 255 258 290 281 316 305 332 274 309 279 305 326 324 327 325 318 313 310
228 228 228 231 234 238 241 245 243 246 238 223 205 194 194 191 182 181 174 161 148 123 112 99 93 113 134 125 98 100 135 131 137 120 112 217 253 206 294 313 296 295 316 298 292 317 324 318 326 327 323 320 315 315
226 227 227 230 234 236 235 226 226 225 215 193 188 189 173 175 173 164 167 164 157 127 120 124 112 115 120 116 108 99 111 105 110 137 187 235 282 289 263 283 248 305 328 319 307 315 311 310 317 320 322 324 319 316
224 225 226 229 233 231 223 191 196 203 189 184 176 172 168 160 164 159 114 154 158 127 107 123 123 118 124 128 136 129 136 142 114 260 266 308 351 293 294 290 8 316 321 316 310 311 311 309 313 319 321 320 319 320
224 223 226 228 226 222 194 173 182 181 174 171 159 155 166 164 164 172 158 146 138 123 101 108 119 151 140 118 103 104 113 121 123 188 228 293 214 267 263 271 336 330 324 319 317 320 317 318 318 324 327 324 321 324
221 221 222 214 205 193 173 172 177 169 159 155 150 153 152 150 146 116 131 134 127 103 93 108 105 134 152 133 125 109 95 88 42 16 336 305 310 238 260 282 333 322 320 319 321 322 315 315 318 327 331 332 335 337
217 215 206 197 179 168 164 168 153 148 148 146 148 150 145 135 111 118 121 122 108 97 105 111 150 148 140 103 95 88 132 172 143 266 206 226 222 239 314 331 317 327 322 317 320 324 327 325 323 329 335 337 339 343
198 180 164 171 157 153 150 144 141 144 150 146 139 133 116 123 122 116 87 86 74 55 66 81 111 108 132 134 108 143 69 86 222 119 150 228 255 335 299 317 316 324 321 320 321 326 329 329 329 331 336 343 347 345
150 154 153 147 143 141 140 138 144 148 145 139 132 101 130 128 103 76 81 65 64 77 75 110 108 130 103 184 107 34 114 129 239 103 273 229 214 311 331 326 327 320 323 321 313 314 320 321 323 331 343 349 350 351
138 135 135 134 133 136 141 146 147 144 143 142 137 127 121 98 87 87 52 113 149 132 138 140 116 103 115 105 127 152 128 209 201 113 234 241 93 342 333 328 329 330 327 321 319 321 329 333 336 343 345 351 355 353
130 133 133 133 134 140 142 138 142 146 131 126 107 94 127 104 107 165 154 149 147 160 150 145 126 134 119 126 117 155 167 195 257 219 218 206 19 350 336 327 334 340 338 331 327 336 342 347 350 354 355 359 359 356
129 129 131 134 135 137 141 142 141 132 128 88 96 97 43 128 98 88 118 118 117 133 137 135 119 129 129 119 133 168 109 249 246 244 186 86 10 345 336 328 340 344 348 346 335 356 354 355 353 357 3 1 0 359
129 130 132 134 140 141 139 143 140 142 91 101 112 99 103 118 99 114 112 109 121 132 127 114 91 95 82 101 160 138 175 225 221 229 98 60 1 346 340 332 342 338 353 354 355 0 354 354 355 354 1 359 359 2
130 135 137 139 141 142 146 141 132 115 80 75 71 87 120 106 113 118 123 118 133 135 111 93 106 119 111 121 191 209 234 239 206 174 115 328 351 345 342 326 333 334 353 0 1 8 351 354 352 351 351 351 356 0
137 136 142 143 143 145 147 142 120 70 82 72 73 102 109 127 127 125 139 141 146 132 113 128 136 119 123 183 216 213 205 268 312 212 199 293 298 317 325 325 327 334 342 350 353 354 357 355 353 351 352 351 354 357
139 146 148 145 143 140 133 115 79 72 70 81 102 104 100 125 136 136 142 152 144 147 133 119 126 194 203 209 208 201 221 238 246 241 269 287 280 281 305 313 314 325 328 334 333 337 345 350 353 353 354 354 349 355
146 146 146 145 139 127 96 65 67 91 82 95 110 108 109 132 132 148 155 165 153 154 145 162 226 225 219 229 250 254 216 243 261 274 274 282 275 269 286 295 303 308 317 322 329 327 330 336 344 352 355 359 353 351
146 152 148 142 141 93 89 73 80 95 110 109 111 106 106 115 139 142 157 169 152 148 179 225 224 230 237 259 261 268 275 274 267 269 271 273 271 269 271 277 284 290 302 315 320 326 330 335 341 352 0 10 2 2
157 151 150 146 97 79 91 94 75 86 103 91 113 107 106 131 141 158 155 177 175 211 232 239 250 261 263 264 263 268 269 267 261 261 269 272 270 269 269 269 273 278 287 298 306 312 327 330 339 352 5 6 5 0
148 151 144 130 83 79 78 75 109 106 87 122 125 116 128 147 157 166 172 189 228 235 238 259 265 264 268 268 270 268 265 262 260 262 267 265 267 269 266 263 255 262 270 282 290 293 303 311 324 338 349 350 355 355
140 141 128 78 92 79 99 86 92 89 112 134 125 110 128 138 150 164 230 229 246 255 252 261 269 265 261 264 269 270 269 268 261 253 258 258 260 261 259 254 252 248 263 275 278 281 286 280 293 322 342 351 351 348
139 125 112 99 81 96 114 67 81 96 100 109 125 121 147 139 157 201 251 242 236 237 248 274 274 272 269 274 276 277 260 240 244 252 253 255 254 254 252 250 241 243 255 261 268 269 264 247 244 251 319 326 333 342
116 105 121 80 105 106 105 114 96 86 97 128 117 132 166 163 203 225 243 255 219 221 218 226 242 265 266 275 278 274 260 245 243 247 256 248 243 244 245 235 236 245 247 248 245 241 239 229 225 229 267 295 318 334
89 124 104 136 151 134 150 127 148 130 123 141 167 144 163 188 215 239 235 233 209 204 205 209 221 271 310 322 314 298 282 260 251 255 247 238 231 234 231 233 239 244 237 234 227 225 227 227 232 240 265 290 310 328
122 143 125 116 122 121 103 93 128 129 157 160 165 171 168 198 231 242 244 235 221 212 210 215 228 260 273 294 316 324 317 281 256 258 242 232 233 233 228 232 238 241 238 232 225 224 227 232 242 252 264 281 300 321
117 148 149 151 133 136 128 141 155 170 159 158 152 177 184 211 227 217 222 229 242 231 229 229 233 256 261 265 279 297 308 304 272 257 238 235 232 223 223 233 242 234 231 228 224 225 230 236 242 250 260 277 297 310
115 138 136 118 117 148 179 164 174 175 165 165 179 191 215 220 238 246 263 261 259 253 247 239 241 258 250 254 264 271 276 281 280 263 247 237 235 236 239 245 238 230 224 218 218 222 231 233 234 243 261 278 289 299
148 158 119 144 160 188 192 177 174 182 187 188 199 220 243 257 272 279 276 270 262 260 265 262 262 260 259 257 259 261 262 261 262 261 255 246 245 244 248 241 231 220 214 212 213 218 228 236 244 254 269 280 289 301
156 148 129 145 185 166 171 183 172 187 202 218 233 246 260 277 285 290 292 286 278 272 266 264 262 259 257 254 251 251 255 254 250 252 253 253 245 238 232 227 222 218 214 213 217 221 228 236 250 264 277 279 283 294
157 171 152 144 154 177 169 177 191 202 219 233 249 263 273 283 280 289 293 291 272 264 265 263 259 263 262 253 246 246 246 247 248 240 242 241 237 227 216 208 209 209 212 219 224 230 238 246 256 267 270 282 280 282
139 165 168 136 137 163 172 166 177 199 231 243 251 256 255 244 253 258 267 261 263 264 261 258 260 263 261 255 248 244 242 240 239 238 236 233 228 222 217 214 214 218 223 228 233 240 247 254 259 266 264 270 276 279
Wind_Speed_850mb
92 88 85 80 75 69 69 69 68 67 66 64 54 48 42 31 24 22 22 25 20 19 16 10 12 12 10 11 6 12 8 3 4 3 2 5 4 2 7 10 7 7 8 12 13 20 12 64 54 34 51 68 63 67
94 92 89 84 79 75 76 77 74 80 78 73 62 45 40 34 32 30 28 29 22 20 17 22 25 20 19 14 17 6 3 6 5 5 1 2 7 6 7 7 8 5 5 12 11 18 64 56 60 69 67 61 65 65
99 93 92 86 81 79 81 79 83 85 84 80 64 48 43 39 35 33 33 36 36 37 34 11 13 18 19 17 18 8 5 5 6 7 4 2 6 3 5 7 14 10 14 12 22 12 59 68 54 55 55 63 65 62
101 96 94 89 84 83 83 95 86 89 84 71 61 48 42 39 40 35 37 40 26 26 15 9 12 18 19 15 14 16 19 13 12 9 4 4 5 4 5 11 17 17 16 18 29 37 74 54 71 69 68 58 55 52
100 96 93 92 87 89 94 106 101 93 77 64 60 53 48 35 34 37 38 39 36 10 13 19 18 18 17 14 11 9 9 9 6 4 6 5 4 4 8 8 12 2 18 16 24 56 47 70 71 68 59 61 56 53
101 95 93 93 92 96 106 98 93 86 80 71 60 53 46 48 42 42 17 22 18 42 19 9 14 9 13 9 9 9 7 6 4 2 4 3 5 6 4 8 3 10 27 40 50 57 57 67 61 53 59 59 52 48
100 95 95 95 102 104 115 98 92 84 73 70 68 60 51 58 57 22 22 45 37 21 14 14 12 8 10 10 8 8 6 5 3 2 5 6 1 4 6 11 17 35 40 49 46 51 60 53 62 58 53 50 43 38
101 92 100 111 121 126 112 102 90 83 84 73 65 64 52 36 29 40 56 44 31 17 14 11 7 11 10 6 6 6 3 4 6 2 3 2 5 7 6 13 32 40 44 43 49 49 50 52 48 47 47 43 42 38
100 102 125 127 137 126 108 93 96 87 78 76 70 53 46 46 22 42 42 31 18 13 13 7 12 8 10 6 7 5 3 3 3 4 3 3 4 7 8 24 32 41 41 47 51 50 49 49 46 46 48 43 36 36
129 145 154 154 123 110 108 104 100 93 86 77 76 34 15 30 59 43 12 7 8 11 9 9 5 9 8 7 6 5 3 2 5 6 3 5 7 5 17 25 32 40 41 42 47 50 55 55 53 50 43 31 29 34
160 154 136 131 124 117 110 109 102 96 93 60 27 12 59 45 14 9 9 9 7 8 7 9 12 17 7 5 6 3 4 2 4 6 3 4 4 6 22 28 33 36 40 42 38 38 39 39 41 36 29 27 31 33
133 122 118 116 116 114 107 103 102 79 50 36 36 63 32 10 9 11 4 3 2 8 9 18 16 12 7 7 5 4 4 4 2 3 4 5 5 17 24 31 36 41 42 42 32 30 34 31 27 24 25 27 29 32
115 115 113 113 109 102 98 90 75 58 57 68 21 11 7 4 6 9 11 4 9 15 15 22 18 10 9 7 8 6 6 4 1 6 6 2 12 18 24 27 34 34 40 35 26 23 26 23 22 23 24 26 27 31
108 104 99 99 96 92 86 73 74 70 34 13 9 8 1 6 5 4 9 17 15 30 33 25 16 7 7 6 4 6 6 3 6 6 6 7 12 20 23 21 28 34 34 37 20 21 25 23 22 22 23 26 29 32
95 93 88 84 85 85 72 77 57 38 15 10 8 7 5 11 15 19 28 32 33 32 26 21 13 7 7 5 0 2 6 7 8 5 5 7 10 18 22 20 24 31 34 36 23 14 25 23 21 21 25 27 29 30
88 87 83 85 78 73 74 52 38 23 10 8 10 11 21 29 21 25 33 36 25 25 19 11 8 5 5 4 6 8 4 7 5 5 5 2 9 16 20 21 24 30 27 30 29 25 24 22 22 24 23 29 31 32
79 73 77 73 73 66 53 43 25 12 10 8 11 27 14 36 29 25 29 26 35 17 6 6 6 4 11 6 5 6 7 7 7 4 5 9 12 14 19 23 24 27 25 22 28 23 22 23 23 24 26 28 29 29
79 73 71 69 66 56 46 22 11 11 12 13 15 18 18 23 30 24 23 34 18 10 11 4 11 6 7 7 7 13 14 9 10 14 19 18 18 15 20 26 26 26 24 24 23 23 22 25 26 26 26 26 25 27
76 67 63 62 54 37 11 10 10 12 10 13 20 21 20 27 24 23 26 29 17 16 12 7 4 7 8 15 14 5 9 12 14 15 18 23 23 24 25 27 28 24 23 24 24 21 21 22 24 24 23 23 22 27
71 67 66 55 37 13 10 10 10 13 8 8 18 19 15 15 20 18 21 25 19 12 6 8 14 19 19 17 14 15 16 18 22 27 29 27 26 27 26 23 23 22 24 21 22 19 16 15 18 17 17 20 19 23
78 70 58 33 27 18 14 9 12 12 14 12 17 13 11 14 12 12 11 19 10 9 13 27 31 28 25 27 27 26 28 26 28 31 33 32 26 26 25 21 21 22 22 21 19 16 14 14 13 11 11 12 14 18
80 68 44 28 13 11 13 12 17 17 9 14 14 10 11 10 9 9 12 13 12 23 22 25 26 26 25 27 27 26 27 26 28 29 32 33 31 26 23 18 18 20 20 20 19 16 14 11 9 6 6 8 12 18
66 49 28 10 9 9 9 13 9 7 9 11 9 8 6 7 8 14 7 12 15 23 24 23 24 24 28 28 28 31 32 31 31 28 27 26 25 23 24 24 22 23 21 18 17 15 12 8 6 4 4 7 10 13
55 17 8 7 9 9 9 7 8 10 10 6 6 5 6 6 9 5 7 11 18 14 16 14 15 16 16 20 22 20 18 22 24 24 25 26 25 22 22 22 21 22 20 19 16 12 10 8 5 2 2 6 10 13
13 5 8 10 9 11 9 8 7 7 6 6 5 3 7 9 7 7 7 10 16 17 15 13 9 8 9 10 12 12 15 18 19 18 16 20 19 19 22 22 23 22 19 16 13 10 10 9 7 5 4 6 8 13
8 4 4 9 13 8 12 9 8 9 10 7 8 10 9 8 5 9 8 12 20 22 22 15 8 6 7 8 9 9 12 13 16 19 17 19 20 19 16 20 21 21 19 17 15 13 12 10 9 8 8 8 8 11
8 5 6 12 14 19 14 12 17 9 9 10 13 14 8 6 9 9 11 17 23 30 26 19 12 9 10 10 10 11 11 11 13 14 17 20 23 26 26 21 18 20 16 18 17 15 14 13 11 10 10 9 9 11
8 14 15 24 13 9 12 13 12 12 11 15 23 9 11 10 7 8 9 9 14 27 30 30 23 17 19 18 16 15 15 14 14 15 18 18 18 22 24 22 20 20 19 19 20 18 17 15 13 11 10 10 12 12
8 22 26 13 10 7 10 11 16 14 23 27 20 12 12 16 17 13 13 17 19 22 29 35 33 31 31 29 29 28 24 20 17 18 19 21 24 24 24 23 22 22 21 22 22 20 18 16 14 13 12 13 13 14
14 22 11 11 12 8 11 16 16 19 32 25 19 15 21 31 34 34 38 38 40 43 46 47 46 47 45 42 41 38 35 32 27 23 22 23 24 26 24 25 25 24 23 23 22 21 19 18 15 14 14 15 15 14
35 14 10 9 9 10 14 25 18 21 22 22 28 31 27 24 47 51 48 44 43 43 47 53 56 57 57 56 52 49 46 40 35 30 25 25 26 26 26 27 29 28 26 25 23 22 20 19 18 18 18 19 20 17
25 15 13 8 8 16 19 19 16 14 13 16 19 27 30 20 17 26 26 18 18 24 27 30 34 36 34 37 44 49 47 45 40 36 33 30 28 27 27 28 29 28 27 25 24 23 22 22 21 20 21 19 17 15
13 22 14 12 11 14 15 14 11 6 9 9 14 27 27 17 16 20 28 21 19 19 21 24 28 28 27 28 33 40 44 47 47 46 42 39 35 37 36 34 32 30 29 28 27 26 25 25 25 24 24 24 20 21
Wind_Direction_850mb
227 227 228 230 233 236 243 246 249 255 251 252 259 265 260 248 240 225 207 193 179 109 100 96 103 117 115 139 164 133 144 148 57 79 332 58 301 85 278 294 312 307 322 288 311 293 290 351 332 331 310 314 313 313
227 229 230 232 235 237 241 249 251 251 250 246 244 236 236 221 212 206 195 185 173 120 123 116 105 113 101 78 119 112 78 89 84 78 310 87 232 219 354 312 136 285 250 295 289 298 307 310 321 317 316 316 314 314
226 228 230 232 235 240 244 249 250 250 248 243 236 209 209 200 195 200 184 159 144 102 104 102 71 113 117 113 114 123 119 101 100 82 88 44 255 258 290 281 316 305 332 274 309 279 305 326 324 327 325 318 313 310
228 228 228 231 234 238 241 245 243 246 238 223 205 194 194 191 182 181 174 161 148 123 112 99 93 113 134 125 98 100 135 131 137 120 112 217 253 206 294 313 296 295 316 298 292 317 324 318 326 327 323 320 315 315
226 227 227 230 234 236 235 226 226 225 215 193 188 189 173 175 173 164 167 164 157 127 120 124 112 115 120 116 108 99 111 105 110 137 187 235 282 289 263 283 248 305 328 319 307 315 311 310 317 320 322 324 319 316
224 225 226 229 233 231 223 191 196 203 189 184 176 172 168 160 164 159 114 154 158 127 107 123 123 118 124 128 136 129 136 142 114 260 266 308 351 293 294 290 8 316 321 316 310 311 311 309 313 319 321 320 319 320
224 223 226 228 226 222 194 173 182 181 174 171 159 155 166 164 164 172 158 146 138 123 101 108 119 151 140 118 103 104 113 121 123 188 228 293 214 267 263 271 336 330 324 319 317 320 317 318 318 324 327 324 321 324
221 221 222 214 205 193 173 172 177 169 159 155 150 153 152 150 146 116 131 134 127 103 93 108 105 134 152 133 125 109 95 88 42 16 336 305 310 238 260 282 333 322 320 319 321 322 315 315 318 327 331 332 335 337
217 215 206 197 179 168 164 168 153 148 148 146 148 150 145 135 111 118 121 122 108 97 105 111 150 148 140 103 95 88 132 172 143 266 206 226 222 239 314 331 317 327 322 317 320 324 327 325 323 329 335 337 339 343
198 180 164 171 157 153 150 144 141 144 150 146 139 133 116 123 122 116 87 86 74 55 66 81 111 108 132 134 108 143 69 86 222 119 150 228 255 335 299 317 316 324 321 320 321 326 329 329 329 331 336 343 347 345
150 154 153 147 143 141 140 138 144 148 145 139 132 101 130 128 103 76 81 65 64 77 75 110 108 130 103 184 107 34 114 129 239 103 273 229 214 311 331 326 327 320 323 321 313 314 320 321 323 331 343 349 350 351
138 135 135 134 133 136 141 146 147 144 143 142 137 127 121 98 87 87 52 113 149 132 138 140 116 103 115 105 127 152 128 209 201 113 234 241 93 342 333 328 329 330 327 321 319 321 329 333 336 343 345 351 355 353
130 133 133 133 134 140 142 138 142 146 131 126 107 94 127 104 107 165 154 149 147 160 150 145 126 134 119 126 117 155 167 195 257 219 218 206 19 350 336 327 334 340 338 331 327 336 342 347 350 354 355 359 359 356
129 129 131 134 135 137 141 142 141 132 128 88 96 97 43 128 98 88 118 118 117 133 137 135 119 129 129 119 133 168 109 249 246 244 186 86 10 345 336 328 340 344 348 346 335 356 354 355 353 357 3 1 0 359
129 130 132 134 140 141 139 143 140 142 91 101 112 99 103 118 99 114 112 109 121 132 127 114 91 95 82 101 160 138 175 225 221 229 98 60 1 346 340 332 342 338 353 354 355 0 354 354 355 354 1 359 359 2
130 135 137 139 141 142 146 141 132 115 80 75 71 87 120 106 113 118 123 118 133 135 111 93 106 119 111 121 191 209 234 239 206 174 115 328 351 345 342 326 333 334 353 0 1 8 351 354 352 351 351 351 356 0
137 136 142 143 143 145 147 142 120 70 82 72 73 102 109 127 127 125 139 141 146 132 113 128 136 119 123 183 216 213 205 268 312 212 199 293 298 317 325 325 327 334 342 350 353 354 357 355 353 351 352 351 354 357
139 146 148 145 143 140 133 115 79 72 70 81 102 104 100 125 136 136 142 152 144 147 133 119 126 194 203 209 208 201 221 238 246 241 269 287 280 281 305 313 314 325 328 334 333 337 345 350 353 353 354 354 349 355
146 146 146 145 139 127 96 65 67 91 82 95 110 108 109 132 132 148 155 165 153 154 145 162 226 225 219 229 250 254 216 243 261 274 274 282 275 269 286 295 303 308 317 322 329 327 330 336 344 352 355 359 353 351
146 152 148 142 141 93 89 73 80 95 110 109 111 106 106 115 139 142 157 169 152 148 179 225 224 230 237 259 261 268 275 274 267 269 271 273 271 269 271 277 284 290 302 315 320 326 330 335 341 352 0 10 2 2
157 151 150 146 97 79 91 94 75 86 103 91 113 107 106 131 141 158 155 177 175 211 232 239 250 261 263 264 263 268 269 267 261 261 269 272 270 269 269 269 273 278 287 298 306 312 327 330 339 352 5 6 5 0
148 151 144 130 83 79 78 75 109 106 87 122 125 116 128 147 157 166 172 189 228 235 238 259 265 264 268 268 270 268 265 262 260 262 267 265 267 269 266 263 255 262 270 282 290 293 303 311 324 338 349 350 355 355
140 141 128 78 92 79 99 86 92 89 112 134 125 110 128 138 150 164 230 229 246 255 252 261 269 265 261 264 269 270 269 268 261 253 258 258 260 261 259 254 252 248 263 275 278 281 286 280 293 322 342 351 351 348
139 125 112 99 81 96 114 67 81 96 100 109 125 121 147 139 157 201 251 242 236 237 248 274 274 272 269 274 276 277 260 240 244 252 253 255 254 254 252 250 241 243 255 261 268 269 264 247 244 251 319 326 333 342
116 105 121 80 105 106 105 114 96 86 97 128 117 132 166 163 203 225 243 255 219 221 218 226 242 265 266 275 278 274 260 245 243 247 256 248 243 244 245 235 236 245 247 248 245 241 239 229 225 229 267 295 318 334
89 124 104 136 151 134 150 127 148 130 123 141 167 144 163 188 215 239 235 233 209 204 205 209 221 271 310 322 314 298 282 260 251 255 247 238 231 234 231 233 239 244 237 234 227 225 227 227 232 240 265 290 310 328
122 143 125 116 122 121 103 93 128 129 157 160 165 171 168 198 231 242 244 235 221 212 210 215 228 260 273 294 316 324 317 281 256 258 242 232 233 233 228 232 238 241 238 232 225 224 227 232 242 252 264 281 300 321
117 148 149 151 133 136 128 141 155 170 159 158 152 177 184 211 227 217 222 229 242 231 229 229 233 256 261 265 279 297 308 304 272 257 238 235 232 223 223 233 242 234 231 228 224 225 230 236 242 250 260 277 297 310
115 138 136 118 117 148 179 164 174 175 165 165 179 191 215 220 238 246 263 261 259 253 247 239 241 258 250 254 264 271 276 281 280 263 247 237 235 236 239 245 238 230 224 218 218 222 231 233 234 243 261 278 289 299
148 158 119 144 160 188 192 177 174 182 187 188 199 220 243 257 272 279 276 270 262 260 265 262 262 260 259 257 259 261 262 261 262 261 255 246 245 244 248 241 231 220 214 212 213 218 228 236 244 254 269 280 289 301
156 148 129 145 185 166 171 183 172 187 202 218 233 246 260 277 285 290 292 286 278 272 266 264 262 259 257 254 251 251 255 254 250 252 253 253 245 238 232 227 222 218 214 213 217 221 228 236 250 264 277 279 283 294
157 171 152 144 154 177 169 177 191 202 219 233 249 263 273 283 280 289 293 291 272 264 265 263 259 263 262 253 246 246 246 247 248 240 242 241 237 227 216 208 209 209 212 219 224 230 238 246 256 267 270 282 280 282
139 165 168 136 137 163 172 166 177 199 231 243 251 256 255 244 253 258 267 261 263 264 261 258 260 263 261 255 248 244 242 240 239 238 236 233 228 222 217 214 214 218 223 228 233 240 247 254 259 266 264 270 276 279